Flag for Pakistan Weather past 2 weeks in Peshawar, Pakistan

Now
93 °F

Extremely hot.


Feels Like: 103 °F
Forecast: 69 / 97 °F
Wind: N/A

Location: Peshawar Airport

Current Time: Oct 2, 2014 at 4:11:27 PM

Latest Report: Oct 2, 2014 at 3:00 PM


Visibility: N/A

Pressure: 29.80 "Hg

Humidity: 53%

Dew point: 73 °F

Location of PeshawarLocation

Historic Weather in Peshawar — Graph

°F

Peshawar temperature yesterday

Maximum temperature yesterday: 91 °F (at 1:00 PM)
Minimum temperature yesterday: 77 °F (at 3:00 AM)
Average temperature yesterday: 84 °F

Past Weeks' High & Low Weather Summary

 TemperatureHumidityPressure
High99 °F (Sep 20, 3:00 PM)79% (Sep 18, 5:00 AM)29.95 "Hg (Sep 18, 5:00 AM)
Low73 °F (Sep 28, 1:00 AM)35% (Sep 20, 4:00 PM)29.56 "Hg (Sep 17, 3:00 PM)
Average85 °F60%29.76 "Hg
* Reported Sep 17 2:00 PM — Oct 2 2:00 PM, Peshawar, Weather by CustomWeather, © 2014

Note: Actual official high and low records may vary slightly from our data, if they occured in-between our weather recording intervals... More about our weather records

Advertising

Peshawar weather history for previous 24 hours

 ConditionsComfort  
Time TempWeatherWind HumidityBarometerVisibility
2:00 PM
Oct 2
91 °FHot.N/A56%29.83 "HgN/A
1:00 PM91 °FHot.N/A59%29.86 "HgN/A
12:00 PM90 °FHot.N/A59%29.89 "HgN/A
11:00 AM86 °FWarm.N/A70%29.92 "HgN/A
10:00 AM84 °FWarm.N/A66%29.95 "HgN/A
9:00 AM82 °FWarm.N/A70%29.95 "HgN/A
8:00 AM81 °FWarm.N/A74%29.92 "HgN/A
7:00 AM79 °FSunny.No wind74%29.92 "Hg2 mi
6:00 AM79 °FWarm.N/A74%29.89 "HgN/A
5:00 AM79 °FWarm.N/A74%29.89 "HgN/A
4:00 AM79 °FWarm.N/A70%29.86 "HgN/A
3:00 AM79 °FWarm.N/A70%29.86 "HgN/A
2:00 AM81 °FWarm.N/A70%29.86 "HgN/A
1:00 AM81 °FWarm.N/A66%29.86 "HgN/A
12:00 AM82 °FWarm.N/A66%29.89 "HgN/A
11:00 PM
Oct 1
82 °FWarm.N/A66%29.89 "HgN/A
10:00 PM82 °FWarm.N/A66%29.86 "HgN/A
9:00 PM84 °FWarm.N/A58%29.86 "HgN/A
8:00 PM84 °FWarm.N/A70%29.86 "HgN/A
7:00 PM86 °FWarm.N/A62%29.83 "HgN/A
6:00 PM88 °FWarm.N/A59%29.80 "HgN/A
5:00 PM91 °FSleet. Cloudy.N/A56%29.80 "HgN/A
4:00 PM91 °FHot.N/A56%29.80 "HgN/A
Weather by CustomWeather, © 2014

See weather overviewHow to use our weather pages